This demonstration page uses our WeatherBlox Daily Observations layout. Learn more.

Left ArrowRight Arrow

39.01783, -85.05884

Hourly Observations for February 9, 2021

Temp ( °F °C ) Dew Point ( °F °C ) Humidity (%) Winds ( mph kmh ) Pressure ( in mb ) Visibility ( mi km ) Precip ( " mm )
12:44 am 00:44 Mostly Cloudy with Heavy Snow 27 -2.8 24 -4.4 89 89 NNE 7 11 30.22 1023 1 1 0.12 3.05
12:52 am 00:52 Mostly Cloudy with Snow 27 -2.8 24 -4.4 89 89 NNE 9 15 30.17 1022 1 1 0.12 3.05
1:02 am 01:02 Mostly Cloudy with Snow 27 -2.8 24 -4.4 89 89 NNE 8 13 30.22 1023 1 2 0.01 0.25
1:19 am 01:19 Mostly Cloudy with Light Snow 27 -2.8 24 -4.4 89 89 NE 5 7 30.23 1024 1 1 0.01 0.25
1:30 am 01:30 Mostly Cloudy with Snow 27 -2.8 24 -4.4 89 89 NE 6 9 30.22 1023 0 0 0.03 0.76
1:52 am 01:52 Mostly Cloudy with Light Snow 26 -3.3 23 -5 88 88 NNE 10 17 30.16 1022 1 2 0.05 1.27
2:15 am 02:15 Cloudy with Light Snow 26 -3.3 23 -5 88 88 NNE 7 11 30.22 1023 2 2 0.01 0.25
2:52 am 02:52 Cloudy with Light Snow 27 -2.8 24 -4.4 89 89 NNE 5 7 30.20 1023 3 5 0.01 0.25
3:03 am 03:03 Cloudy with Light Snow 27 -2.8 24 -4.4 89 89 NE 3 6 30.24 1024 2 2 0.00 0.00
3:52 am 03:52 Cloudy with Snow 26 -3.3 24 -4.4 92 92 NE 3 6 30.19 1023 1 1 0.03 0.76
4:16 am 04:16 Cloudy with Light Snow 26 -3.3 24 -4.4 92 92 NE 3 6 30.23 1024 2 3 0.01 0.25
4:40 am 04:40 Cloudy with Light Snow 26 -3.3 24 -4.4 92 92 E 3 6 30.23 1024 1 2 0.01 0.25
4:52 am 04:52 Mostly Cloudy with Light Snow 26 -3.3 24 -4.4 92 92 Calm 30.19 1022 1 2 0.03 0.76
5:37 am 05:37 Cloudy with Light Snow 26 -3.3 24 -4.4 92 92 ESE 5 7 30.23 1024 2 3 0.00 0.00
5:52 am 05:52 Cloudy with Mist and Fog 26 -3.3 23 -5 88 88 E 6 9 30.18 1022 3 5 0.00 0.00
6:52 am 06:52 Cloudy with Mist and Fog 27 -2.8 24 -4.4 89 89 Calm 30.19 1022 3 5 0.00 0.00
7:19 am 07:19 Cloudy with Mist and Fog 26 -3.3 24 -4.4 92 92 N 5 7 30.25 1024 3 5 0.00 0.00
7:52 am 07:52 Cloudy with Mist and Fog 26 -3.3 24 -4.4 92 92 N 6 9 30.21 1023 2 3 0.00 0.00
8:22 am 08:22 Cloudy with Mist and Fog 27 -2.8 24 -4.4 89 89 N 7 11 30.26 1025 2 3 0.00 0.00
8:30 am 08:30 Cloudy with Mist and Fog 27 -2.8 24 -4.4 89 89 N 9 15 30.26 1025 2 3 0.00 0.00
8:48 am 08:48 Cloudy with Mist and Fog 27 -3 25 -4 93 93 N 7 11 30.26 1025 2 3 0.00 0.00
8:52 am 08:52 Cloudy with Mist and Fog 27 -2.8 24 -4.4 89 89 N 7 11 30.22 1023 2 3 0.00 0.00
9:21 am 09:21 Cloudy with Mist and Fog 27 -2.8 24 -4.4 89 89 N 8 13 30.27 1025 2 3 0.00 0.00
9:52 am 09:52 Cloudy with Mist and Fog 27 -2.8 24 -4.4 89 89 N 9 15 30.24 1024 2 3 0.00 0.00
10:10 am 10:10 Cloudy with Mist and Fog 27 -2.8 24 -4.4 89 89 N 10 17 30.27 1025 2 3 0.00 0.00
10:52 am 10:52 Cloudy with Mist and Fog 27 -2.8 23 -5 85 85 NNW 10 17 30.25 1025 1 2 0.00 0.00
11:27 am 11:27 Cloudy with Haze 27 -2.8 22 -5.6 81 81 N 10 17 30.30 1026 2 2 0.00 0.00
11:52 am 11:52 Cloudy with Haze 27 -2.8 22 -5.6 81 81 N 9 15 30.26 1025 2 3 0.00 0.00
12:06 pm 12:06 Cloudy with Haze 27 -2.8 22 -5.6 81 81 N 8 13 30.30 1026 2 3 0.00 0.00
12:42 pm 12:42 Cloudy with Haze 28 -2.2 22 -5.6 78 78 N 9 15 30.29 1026 3 4 0.00 0.00
12:52 pm 12:52 Cloudy with Haze 28 -2.2 22 -5.6 78 78 N 10 17 30.25 1025 3 4 0.00 0.00
1:00 pm 13:00 Cloudy with Haze 28 -2.2 22 -5.6 78 78 N 9 15 30.28 1026 3 5 0.00 0.00
1:52 pm 13:52 Cloudy with Haze 30 -1.1 22 -5.6 72 72 N 9 15 30.24 1024 4 6 0.00 0.00
2:52 pm 14:52 Cloudy with Haze 29 -1.7 21 -6.1 72 72 N 5 7 30.24 1024 4 6 0.00 0.00
3:52 pm 15:52 Cloudy with Haze 30 -1.1 22 -5.6 72 72 N 8 13 30.27 1025 4 6 0.00 0.00
4:52 pm 16:52 Cloudy with Haze 29 -1.7 21 -6.1 72 72 NNW 10 17 30.28 1026 4 6 0.00 0.00
5:52 pm 17:52 Cloudy with Haze 28 -2.2 20 -6.7 72 72 N 9 15 30.30 1026 4 6 0.00 0.00
6:52 pm 18:52 Cloudy with Haze 26 -3.3 18 -7.8 71 71 N 10 17 30.31 1026 5 8 0.00 0.00
7:52 pm 19:52 Cloudy with Haze 25 -3.9 18 -7.8 75 75 N 7 11 30.33 1027 5 8 0.00 0.00
8:52 pm 20:52 Cloudy with Haze 25 -3.9 17 -8.3 72 72 N 8 13 30.34 1027 5 8 0.00 0.00
9:25 pm 21:25 Cloudy with Haze 24 -4.4 17 -8.3 75 75 N 9 15 30.38 1029 5 8 0.00 0.00
9:52 pm 21:52 Cloudy with Haze 24 -4.4 17 -8.3 75 75 N 8 13 30.35 1028 5 8 0.00 0.00
10:52 pm 22:52 Cloudy with Haze 24 -4.4 17 -8.3 75 75 N 9 15 30.35 1028 5 8 0.00 0.00
11:52 pm 23:52 Cloudy with Haze 23 -5 16 -8.9 74 74 NNE 8 13 30.35 1028 5 8 0.00 0.00

Powered by AerisWeather